| time (UTC) | temp C | wind direction | speed KPH | gust KPH | rain 1hr cm | rain 24hr cm | rain mn cm | humidity % | barometer mb |
| 20260510180017 | 16 | 338 | 19.3 | 38.6 | 0.00 | 0.00 | 0.00 | 35 | 1020.5 |
| 20260510173018 | 16 | 338 | 17.7 | 37.0 | 0.00 | 0.00 | 0.00 | 36 | 1020.5 |
| 20260510170028 | 15 | 23 | 17.7 | 37.0 | 0.00 | 0.00 | 0.00 | 37 | 1020.5 |
| 20260510163018 | 15 | 338 | 17.7 | 33.8 | 0.00 | 0.00 | 0.00 | 38 | 1020.4 |
| 20260510160018 | 14 | 338 | 17.7 | 35.4 | 0.00 | 0.00 | 0.00 | 39 | 1020.5 |
| 20260510153018 | 13 | 338 | 14.5 | 27.4 | 0.00 | 0.00 | 0.00 | 41 | 1020.3 |
| 20260510150017 | 13 | 338 | 17.7 | 27.4 | 0.00 | 0.00 | 0.00 | 42 | 1020.2 |
| 20260510143038 | 12 | 315 | 20.9 | 29.0 | 0.00 | 0.00 | 0.00 | 43 | 1020.1 |
| 20260510140017 | 11 | 338 | 19.3 | 27.4 | 0.00 | 0.00 | 0.00 | 49 | 1020.2 |
| 20260510133017 | 10 | 315 | 11.3 | 17.7 | 0.00 | 0.00 | 0.00 | 53 | 1019.9 |
| 20260510130018 | 8 | 248 | 4.8 | 14.5 | 0.00 | 0.00 | 0.00 | 58 | 1019.5 |
| 20260510123017 | 5 | 248 | 3.2 | 8.0 | 0.00 | 0.00 | 0.00 | 68 | 1018.9 |
| 20260510120017 | 3 | 248 | 1.6 | 6.4 | 0.00 | 0.00 | 0.00 | 68 | 1018.7 |
| 20260510113016 | 3 | 0.0 | 3.2 | 0.00 | 0.00 | 0.00 | 66 | 1018.6 | |
| 20260510110118 | 3 | 0.0 | 8.0 | 0.00 | 0.00 | 0.00 | 66 | 1018.5 | |
| 20260510103038 | 4 | 248 | 1.6 | 9.7 | 0.00 | 0.00 | 0.00 | 63 | 1018.3 |
| 20260510100016 | 4 | 225 | 1.6 | 6.4 | 0.00 | 0.00 | 0.00 | 64 | 1018.1 |
| 20260510093118 | 3 | 225 | 1.6 | 4.8 | 0.00 | 0.00 | 0.00 | 64 | 1017.6 |
| 20260510090017 | 4 | 0.0 | 6.4 | 0.00 | 0.00 | 0.00 | 63 | 1017.3 | |
| 20260510083017 | 5 | 0.0 | 4.8 | 0.00 | 0.00 | 0.00 | 62 | 1017.1 | |
| 20260510080017 | 5 | 203 | 3.2 | 8.0 | 0.00 | 0.00 | 0.00 | 62 | 1016.8 |
| 20260510073017 | 5 | 270 | 1.6 | 9.7 | 0.00 | 0.00 | 0.00 | 57 | 1016.7 |
| 20260510070016 | 6 | 315 | 1.6 | 9.7 | 0.00 | 0.00 | 0.00 | 56 | 1016.5 |
| 20260510063016 | 6 | 0.0 | 3.2 | 0.00 | 0.00 | 0.00 | 55 | 1016.4 | |
| 20260510060016 | 7 | 315 | 1.6 | 6.4 | 0.00 | 0.00 | 0.00 | 51 | 1016.5 |
| 20260510053016 | 7 | 338 | 6.4 | 8.0 | 0.00 | 0.00 | 0.00 | 49 | 1016.4 |
| 20260510050016 | 7 | 338 | 4.8 | 8.0 | 0.00 | 0.00 | 0.00 | 49 | 1016.1 |
| 20260510043036 | 8 | 338 | 6.4 | 8.0 | 0.00 | 0.00 | 0.00 | 47 | 1016.1 |
| 20260510040018 | 8 | 338 | 6.4 | 9.7 | 0.00 | 0.00 | 0.00 | 46 | 1015.9 |
| 20260510033017 | 8 | 338 | 9.7 | 12.9 | 0.00 | 0.00 | 0.00 | 45 | 1015.7 |
| 20260510030016 | 9 | 338 | 11.3 | 16.1 | 0.00 | 0.00 | 0.00 | 43 | 1015.3 |
| 20260510023017 | 10 | 338 | 12.9 | 17.7 | 0.00 | 0.00 | 0.00 | 40 | 1014.6 |
| 20260510020017 | 11 | 338 | 19.3 | 33.8 | 0.00 | 0.00 | 0.00 | 36 | 1014.0 |
| 20260510013017 | 12 | 338 | 24.1 | 35.4 | 0.00 | 0.00 | 0.00 | 33 | 1013.6 |
| 20260510010017 | 13 | 338 | 25.7 | 37.0 | 0.00 | 0.00 | 0.00 | 31 | 1013.1 |
| 20260510003016 | 15 | 338 | 29.0 | 41.8 | 0.00 | 0.00 | 0.00 | 28 | 1012.8 |
| 20260510000037 | 15 | 338 | 27.4 | 40.2 | 0.00 | 0.00 | 0.00 | 28 | 1012.6 |
| 20260509233037 | 15 | 338 | 30.6 | 46.7 | 0.00 | 0.00 | 0.00 | 26 | 1012.2 |
| 20260509230016 | 16 | 338 | 33.8 | 51.5 | 0.00 | 0.00 | 0.00 | 24 | 1011.8 |
| 20260509223016 | 16 | 338 | 35.4 | 51.5 | 0.00 | 0.00 | 0.00 | 24 | 1011.3 |
| 20260509220037 | 16 | 338 | 33.8 | 49.9 | 0.00 | 0.00 | 0.00 | 24 | 1011.2 |
| 20260509213016 | 16 | 338 | 35.4 | 51.5 | 0.00 | 0.00 | 0.00 | 23 | 1011.0 |
| 20260509210016 | 16 | 338 | 37.0 | 53.1 | 0.00 | 0.00 | 0.00 | 24 | 1010.6 |
| 20260509203016 | 16 | 338 | 35.4 | 57.9 | 0.00 | 0.00 | 0.00 | 25 | 1010.4 |
| 20260509200016 | 16 | 338 | 35.4 | 56.3 | 0.00 | 0.00 | 0.00 | 28 | 1010.2 |
| 20260509193036 | 17 | 338 | 33.8 | 56.3 | 0.00 | 0.00 | 0.00 | 30 | 1009.9 |
| 20260509190036 | 16 | 338 | 33.8 | 54.7 | 0.00 | 0.00 | 0.00 | 31 | 1009.8 |
| 20260509183037 | 16 | 338 | 33.8 | 56.3 | 0.00 | 0.00 | 0.00 | 33 | 1009.7 |